FENGYUN 1C DEB

Satellite information

Favourite Embed

Satellite Type and Status

DEBRISIN ORBIT

Key statistics

Satellite FENGYUN 1C DEB at a glance.

Uptime

9617

Days in orbit

Revolutions

≈ 14.5

Per day

Orbit

SSO

Sun Synchronous Orbit

Inclination

99.0

Latest

Satellite identification and parameters

Extended collection of information and parameters for FENGYUN 1C DEB.

Object identification

Identified? True

Debris? True

Object name: FENGYUN 1C DEB

International designator: 1999-025BJM

Object number (NORAD): 31183

Object ID (CCSDS): 31183

Country: PEOPLES REPUBLIC OF CHINA (PRC)

Current information (Y/N): Y

RCS size: SMALL

Orbital parameters

Period: 99.38 minutes

Inclination: 99.0243 deg

SMA: 7107.089 km

Apoapsis: 764.422 km

Periapsis: 693.487 km

RAAN: 225.5087 deg

Eccentricy: 0.00499042

Argument of periapsis: 43.0594 deg

Mean anomaly: 133.9406 deg

Mean motion: 14.48989072 rev/day

Mean motion (dot): 0.0000791 rev/day2

B* drag term: 0.0020650562 1/REarth

Two-line elements (TLE)

Creation date: Sept. 6, 2025, 2:09 a.m.

Reference frame: TEME

Reference center: EARTH

Epoch: Sept. 5, 2025, 5:09 p.m. UTC

TLE line 0: 0 FENGYUN 1C DEB

TLE line 1: 1 31183U 99025BJM 25248.71491050 .00007910 00000-0 20651-2 0 9992

TLE line 2: 2 31183 99.0243 225.5087 0049904 43.0594 133.9406 14.48989072960626

Live tracking on map

Real-time ground track for satellite FENGYUN 1C DEB.

In-orbit conjunctions

A list of the most updated potential collisions computed for object FENGYUN 1C DEB.

Target Orbit TCA Probability of collision Miss distance Type
CZ-6A DEB LEO 2025-06-13 15:44:27 0.0002143795 167.0 (m) DEBRIS
FENGYUN 1C DEB SSO 2024-11-14 15:39:37 0.0004335905 65.0 (m) DEBRIS
CZ-4 DEB SSO 2024-11-12 05:52:10 0.0007616732 548.0 (m) DEBRIS

Associated space launch

Chinese polar orbiting meteorological satellite

FENGYUN 1C DEB was lifted into orbit during the mission ‘Long March 4B | Feng Yun 1C’, on board a Long March 4B space rocket.

The launch took place on May 10, 1999, 1:33 a.m. from Launch Complex 7.

For more information about the launch, click the button.

Launch to space Long March 4B | Feng Yun 1C
Long March 4B | Feng Yun 1C

Agency: N/A

Status: Launch Successful

Launch date: May 10, 1999, 1:33 a.m. UTC

Rocket: Long March 4B

Launch pad: Launch Complex 7

Location: Taiyuan Satellite Launch Center, People's Republic of China

...

Latest news about this satellite

There are no fresh news available about this satellite. Check back as we update our databases every day.


Newsletter sign-up

Weekly statistics, charts and insights to help you stay on top of the space industry.